TimeMDT,TemperatureF,Dew PointF,Humidity,Sea Level PressureIn,VisibilityMPH,Wind Direction,Wind SpeedMPH,Gust SpeedMPH,PrecipitationIn,Events,Conditions,WindDirDegrees,DateUTC
12:02 AM,28.4,24.8,86,30.19,10.0,South,8.1,-,N/A,,Overcast,170,2012-10-07 06:02:00
12:28 AM,28.4,24.8,86,30.18,10.0,SSE,10.4,-,N/A,,Overcast,160,2012-10-07 06:28:00
12:48 AM,26.6,24.8,93,30.18,10.0,SSE,11.5,-,N/A,,Overcast,150,2012-10-07 06:48:00
1:08 AM,26.6,24.8,93,30.18,10.0,SSE,10.4,-,N/A,,Overcast,160,2012-10-07 07:08:00
1:31 AM,26.6,24.8,93,30.17,10.0,South,10.4,-,N/A,,Overcast,170,2012-10-07 07:31:00
1:39 AM,26.6,24.8,93,30.17,10.0,South,10.4,-,N/A,,Overcast,170,2012-10-07 07:39:00
2:11 AM,26.6,26.6,100,30.17,10.0,South,9.2,-,N/A,,Overcast,180,2012-10-07 08:11:00
2:31 AM,26.6,24.8,93,30.16,10.0,South,8.1,-,N/A,,Overcast,190,2012-10-07 08:31:00
2:41 AM,26.6,24.8,93,30.16,10.0,South,10.4,-,N/A,,Overcast,190,2012-10-07 08:41:00
2:59 AM,26.6,26.6,100,30.16,10.0,South,9.2,-,N/A,,Overcast,190,2012-10-07 08:59:00
3:31 AM,26.6,26.6,100,30.15,10.0,SSW,6.9,-,N/A,,Overcast,200,2012-10-07 09:31:00
3:38 AM,26.6,26.6,100,30.15,10.0,SSW,8.1,-,N/A,,Overcast,210,2012-10-07 09:38:00
4:11 AM,26.6,26.6,100,30.15,10.0,SSW,9.2,-,N/A,,Overcast,200,2012-10-07 10:11:00
4:31 AM,26.6,26.6,100,30.15,10.0,SSW,9.2,-,N/A,,Overcast,200,2012-10-07 10:31:00
4:51 AM,26.6,26.6,100,30.15,10.0,SSW,8.1,-,N/A,,Overcast,210,2012-10-07 10:51:00
5:06 AM,26.6,26.6,100,30.15,10.0,SW,6.9,-,N/A,,Overcast,220,2012-10-07 11:06:00
5:31 AM,26.6,24.8,93,30.15,10.0,SW,10.4,-,N/A,,Overcast,220,2012-10-07 11:31:00
5:51 AM,26.6,24.8,93,30.15,10.0,SW,8.1,-,N/A,,Scattered Clouds,230,2012-10-07 11:51:00
6:04 AM,24.8,23.0,93,30.15,10.0,WSW,8.1,-,N/A,,Clear,240,2012-10-07 12:04:00
6:30 AM,24.8,23.0,93,30.15,10.0,SW,9.2,-,N/A,,Clear,230,2012-10-07 12:30:00
6:46 AM,24.8,23.0,93,30.15,10.0,WSW,9.2,-,N/A,,Clear,240,2012-10-07 12:46:00
7:11 AM,23.0,23.0,100,30.15,10.0,SW,10.4,-,N/A,,Clear,220,2012-10-07 13:11:00
7:51 AM,26.6,24.8,93,30.16,10.0,SW,6.9,-,N/A,,Clear,230,2012-10-07 13:51:00
8:11 AM,28.4,26.6,93,30.16,10.0,WSW,5.8,-,N/A,,Clear,250,2012-10-07 14:11:00
8:51 AM,32.0,26.6,80,30.17,10.0,West,5.8,-,N/A,,Clear,280,2012-10-07 14:51:00
9:11 AM,32.0,26.6,80,30.17,10.0,West,5.8,-,N/A,,Clear,270,2012-10-07 15:11:00
9:30 AM,33.8,24.8,70,30.17,10.0,NW,3.5,-,N/A,,Clear,310,2012-10-07 15:30:00
9:50 AM,33.8,19.4,56,30.17,10.0,NW,4.6,-,N/A,,Clear,310,2012-10-07 15:50:00
10:09 AM,35.6,19.4,52,30.17,10.0,NNW,8.1,-,N/A,,Clear,340,2012-10-07 16:09:00
10:31 AM,35.6,17.6,48,30.16,10.0,NW,6.9,-,N/A,,Clear,320,2012-10-07 16:31:00
10:51 AM,37.4,19.4,48,30.16,10.0,NW,6.9,-,N/A,,Clear,320,2012-10-07 16:51:00
11:30 AM,39.2,17.6,42,30.15,10.0,NNW,6.9,-,N/A,,Clear,340,2012-10-07 17:30:00
11:51 AM,41.0,14.0,33,30.15,10.0,Calm,Calm,-,N/A,,Clear,0,2012-10-07 17:51:00
12:11 PM,41.0,17.6,39,30.15,10.0,North,8.1,-,N/A,,Clear,350,2012-10-07 18:11:00
12:31 PM,42.8,14.0,31,30.14,10.0,NNE,6.9,-,N/A,,Clear,20,2012-10-07 18:31:00
12:51 PM,42.8,14.0,31,30.13,10.0,NNE,5.8,-,N/A,,Clear,20,2012-10-07 18:51:00
1:11 PM,44.6,12.2,27,30.13,10.0,North,5.8,-,N/A,,Clear,350,2012-10-07 19:11:00
1:31 PM,44.6,10.4,25,30.12,10.0,NNW,3.5,-,N/A,,Clear,340,2012-10-07 19:31:00
1:50 PM,44.6,10.4,25,30.11,10.0,NNE,4.6,-,N/A,,Clear,30,2012-10-07 19:50:00
2:11 PM,44.6,10.4,25,30.10,10.0,North,4.6,-,N/A,,Clear,350,2012-10-07 20:11:00
2:28 PM,44.6,10.4,25,30.09,10.0,North,5.8,-,N/A,,Clear,360,2012-10-07 20:28:00
2:51 PM,44.6,10.4,25,30.09,10.0,Calm,Calm,-,N/A,,Clear,0,2012-10-07 20:51:00
3:08 PM,46.4,10.4,23,30.09,10.0,ENE,5.8,-,N/A,,Clear,70,2012-10-07 21:08:00
3:29 PM,46.4,12.2,25,30.08,10.0,East,5.8,-,N/A,,Clear,100,2012-10-07 21:29:00
3:51 PM,44.6,10.4,25,30.08,10.0,Calm,Calm,-,N/A,,Clear,0,2012-10-07 21:51:00
4:06 PM,46.4,12.2,25,30.07,10.0,East,4.6,-,N/A,,Clear,80,2012-10-07 22:06:00
4:24 PM,46.4,12.2,25,30.07,10.0,Calm,Calm,-,N/A,,Clear,0,2012-10-07 22:24:00
4:39 PM,46.4,12.2,25,30.07,10.0,NE,4.6,-,N/A,,Clear,50,2012-10-07 22:39:00
4:59 PM,46.4,12.2,25,30.07,10.0,Calm,Calm,-,N/A,,Clear,0,2012-10-07 22:59:00
5:30 PM,44.6,12.2,27,30.08,10.0,East,8.1,-,N/A,,Clear,90,2012-10-07 23:30:00
5:40 PM,44.6,12.2,27,30.09,10.0,ESE,10.4,-,N/A,,Clear,110,2012-10-07 23:40:00
6:01 PM,42.8,14.0,31,30.10,10.0,East,8.1,-,N/A,,Clear,80,2012-10-08 00:01:00
6:50 PM,33.8,14.0,44,30.11,10.0,ESE,5.8,-,N/A,,Clear,120,2012-10-08 00:50:00
6:58 PM,33.8,15.8,48,30.11,10.0,ESE,5.8,-,N/A,,Clear,120,2012-10-08 00:58:00
7:31 PM,33.8,14.0,44,30.10,10.0,SSE,9.2,-,N/A,,Clear,160,2012-10-08 01:31:00
7:39 PM,35.6,12.2,38,30.10,10.0,SSE,9.2,-,N/A,,Clear,150,2012-10-08 01:39:00
8:09 PM,32.0,17.6,55,30.10,10.0,South,8.1,-,N/A,,Clear,180,2012-10-08 02:09:00
8:21 PM,32.0,19.4,60,30.10,10.0,South,8.1,-,N/A,,Clear,190,2012-10-08 02:21:00
8:44 PM,32.0,19.4,60,30.10,10.0,South,10.4,-,N/A,,Clear,180,2012-10-08 02:44:00
9:00 PM,32.0,19.4,60,30.10,10.0,SSW,9.2,-,N/A,,Clear,200,2012-10-08 03:00:00
9:19 PM,32.0,23.0,69,30.10,10.0,SSW,11.5,-,N/A,,Clear,200,2012-10-08 03:19:00
9:39 PM,33.8,23.0,65,30.10,10.0,SSW,9.2,-,N/A,,Clear,200,2012-10-08 03:39:00
9:59 PM,33.8,23.0,65,30.09,10.0,SSW,13.8,-,N/A,,Clear,200,2012-10-08 03:59:00
10:21 PM,32.0,23.0,69,30.09,10.0,SSW,11.5,-,N/A,,Clear,200,2012-10-08 04:21:00
10:41 PM,32.0,23.0,69,30.09,10.0,SSW,12.7,-,N/A,,Clear,200,2012-10-08 04:41:00
10:59 PM,32.0,23.0,69,30.08,10.0,SSW,9.2,-,N/A,,Clear,200,2012-10-08 04:59:00
11:26 PM,32.0,23.0,69,30.07,10.0,SSW,13.8,19.6,N/A,,Clear,200,2012-10-08 05:26:00
11:39 PM,32.0,21.2,64,30.07,10.0,SSW,12.7,-,N/A,,Clear,200,2012-10-08 05:39:00